Location: *
(46.3500°N, 10.9000°E)
Time: 21:54:38
(UTC+00:00)

A-11 Canister half - Pass Details

Date: 29 April 2021
Orbit: 1526 x 1682 km, 47.3° (Epoch: 13 May)

Event Time Altitude Azimuth Distance (km) Brightness Sun altitude
Rises 14:10:09 0° 261° (W) 4,843 12.4 41.5°
Reaches altitude 10° 14:13:14 10° 262° (W) 3,876 12.2 41.0°
Maximum altitude 14:23:16 87° 351° (N) 1,677 9.9 39.4°
Drops below altitude 10° 14:33:30 10° 83° (E) 3,948 10.8 37.8°
Sets 14:36:40 0° 84° (E) 4,936 11.2 37.3°
